Flag for Germany Weather past 2 weeks in Saalfeld/Saale, Thuringia, Germany

Now
48 °F

Scattered showers. Partly sunny.


Feels Like: 43 °F
Forecast: 26 / 60 °F
Wind: 13 mph from Northwest

Location: Erfurt-Bindersleben


UV Index: 0 (Low)

Visibility: N/A


Pressure: 29.83 "Hg

Humidity: 66%

Dew point: 37 °F

Location of Saalfeld/SaaleLocation

Historic Weather in Saalfeld/Saale

°F

Saalfeld/Saale temperature yesterday

Maximum temperature yesterday: 57 °F (at 4:50 PM)
Minimum temperature yesterday: 30 °F (at 6:50 AM)
Average temperature yesterday: 44 °F

Past Weeks' High & Low Weather Summary

 TemperatureHumidityPressure
High70 °F (Apr 3, 2:50 PM)100% (Apr 5, 1:20 AM)30.42 "Hg (Apr 5, 1:20 AM)
Low30 °F (Apr 17, 6:50 AM)31% (Apr 17, 4:50 PM)29.68 "Hg (Apr 3, 12:20 PM)
Average49 °F74%30.03 "Hg
* Reported Apr 3 12:20 PM — Apr 18 12:20 PM, Saalfeld/Saale, Weather by CustomWeather, © 2014

Note: Actual official high and low records may vary slightly from our data, if they occured in-between our weather recording intervals... More about our weather records

Advertising

Historic Weather Conditions — Data for Previous 24 hours

 ConditionsComfort  
Time TempWeatherWind HumidityBarometerVisibility
12:20 PM
Apr 18
45 °FSprinkles. Partly sunny.13 mph71%29.83 "HgN/A
11:50 AM45 °FScattered showers. Scattered clouds.12 mph81%29.83 "HgN/A
11:20 AM45 °FScattered clouds.9 mph81%29.83 "HgN/A
10:50 AM43 °FScattered showers. Partly sunny.12 mph81%29.83 "HgN/A
10:20 AM45 °FSprinkles. Broken clouds.7 mph81%29.83 "HgN/A
9:50 AM41 °FSprinkles. Broken clouds.7 mph93%29.83 "HgN/A
9:20 AM41 °FBroken clouds.7 mph87%29.83 "HgN/A
8:50 AM41 °FLight rain. Broken clouds.5 mph87%29.83 "HgN/A
8:20 AM41 °FLight rain. Broken clouds.10 mph87%29.83 "HgN/A
7:50 AM41 °FLight rain. Partly sunny.10 mph93%29.80 "HgN/A
7:20 AM41 °FLight rain. Partly sunny.10 mph93%29.80 "HgN/A
6:50 AM41 °FLight rain. Passing clouds.13 mph93%29.80 "HgN/A
6:20 AM43 °FLight rain. Passing clouds.10 mph93%29.77 "HgN/A
5:50 AM43 °FLight rain. Passing clouds.8 mph93%29.77 "HgN/A
5:20 AM43 °FLight rain. Partly cloudy.10 mph87%29.77 "HgN/A
4:50 AM43 °FLight rain. Passing clouds.9 mph93%29.80 "HgN/A
4:20 AM43 °FLight rain. Passing clouds.13 mph87%29.80 "HgN/A
3:50 AM43 °FLight rain. Partly cloudy.12 mph87%29.83 "HgN/A
3:20 AM45 °FLight rain. Passing clouds.13 mph71%29.83 "HgN/A
2:50 AM48 °FPartly cloudy.12 mph46%29.83 "HgN/A
2:20 AM48 °FClear.9 mph46%29.83 "Hg10 mi
1:20 AM48 °FClear.8 mph46%29.83 "Hg10 mi
12:50 AM48 °FClear.9 mph46%29.86 "Hg10 mi
12:20 AM45 °FClear.10 mph53%29.86 "Hg10 mi
11:50 PM
Apr 17
45 °FClear.10 mph53%29.89 "Hg10 mi
11:20 PM46 °FClear.9 mph50%29.89 "Hg10 mi
10:50 PM46 °FClear.8 mph46%29.92 "Hg10 mi
10:20 PM48 °FClear.8 mph43%29.92 "Hg10 mi
9:50 PM46 °FClear.8 mph46%29.92 "Hg10 mi
9:20 PM46 °FClear.10 mph46%29.92 "Hg10 mi
8:50 PM50 °FSunny.12 mph37%29.95 "Hg10 mi
8:20 PM50 °FSunny.13 mph37%29.95 "Hg10 mi
7:50 PM50 °FSunny.10 mph40%29.98 "Hg10 mi
6:50 PM55 °FSunny.10 mph33%30.01 "Hg10 mi
6:20 PM55 °FSunny.13 mph31%30.01 "Hg10 mi
5:50 PM55 °FSunny.12 mph33%30.01 "Hg10 mi
5:20 PM57 °FSunny.10 mph33%30.04 "Hg10 mi
4:50 PM57 °FSunny.9 mph31%30.04 "Hg10 mi
4:20 PM55 °FSunny.10 mph33%30.07 "Hg10 mi
3:50 PM55 °FSunny.10 mph38%30.07 "Hg10 mi
3:20 PM55 °FSunny.9 mph33%30.09 "Hg10 mi
2:50 PM54 °FSunny.7 mph33%30.12 "Hg10 mi
2:20 PM54 °FSunny.7 mph35%30.15 "Hg10 mi
1:50 PM52 °FPassing clouds.6 mph38%30.18 "HgN/A
1:20 PM52 °FSunny.7 mph35%30.18 "Hg10 mi
Weather by CustomWeather, © 2014

See weather overview